Flag for U.S.A. Weather past 2 weeks in Columbus, Georgia, U.S.A.

Now
90 °F

Passing clouds.


Feels Like: 96 °F
Forecast: 71 / 87 °F
Wind: 8 mph from West

Location: Columbus Metropolitan Airport

Current Time: Jul 25, 2014 at 4:42:31 PM

Latest Report: Jul 25, 2014 at 3:51 PM


Visibility: 10 mi

Pressure: 29.95 "Hg

Humidity: 54%

Dew point: 71 °F

Location of ColumbusLocation

Historic Weather in Columbus — Graph

°F

Columbus temperature yesterday

Maximum temperature yesterday: 89 °F (at 2:51 PM)
Minimum temperature yesterday: 74 °F (at 5:51 AM)
Average temperature yesterday: 82 °F

Past Weeks' High & Low Weather Summary

 TemperatureHumidityPressure
High93 °F (Jul 14, 5:51 PM)100% (Jul 13, 7:58 AM)30.18 "Hg (Jul 13, 7:58 AM)
Low65 °F (Jul 17, 5:51 AM)29% (Jul 17, 5:51 PM)29.81 "Hg (Jul 15, 5:51 PM)
Average78 °F76%30.01 "Hg
* Reported Jul 10 3:51 PM — Jul 25 3:51 PM, Columbus, Weather by CustomWeather, © 2014

Note: Actual official high and low records may vary slightly from our data, if they occured in-between our weather recording intervals... More about our weather records

Advertising

Columbus weather history for previous 24 hours

 ConditionsComfort  
Time TempWeatherWind HumidityBarometerVisibility
3:51 PM
Jul 25
90 °FPassing clouds.8 mph54%29.95 "Hg10 mi
2:51 PM87 °FScattered clouds.5 mph57%29.96 "Hg10 mi
1:51 PM88 °FBroken clouds.10 mph57%29.98 "Hg10 mi
12:51 PM85 °FPartly sunny.6 mph68%30.01 "Hg10 mi
11:51 AM83 °FMostly cloudy.7 mph70%30.03 "Hg10 mi
10:51 AM80 °FMostly cloudy.No wind76%30.03 "Hg10 mi
9:51 AM80 °FPartly sunny.6 mph76%30.03 "Hg10 mi
8:51 AM77 °FPassing clouds.3 mph85%30.02 "Hg9 mi
7:59 AM75 °FScattered clouds.No wind89%30.02 "Hg7 mi
6:51 AM75 °FPassing clouds.5 mph90%29.98 "Hg7 mi
5:51 AM75 °FOvercast.No wind90%29.97 "Hg7 mi
4:51 AM75 °FPassing clouds.No wind94%29.96 "Hg7 mi
3:51 AM76 °FPassing clouds.3 mph88%29.96 "Hg9 mi
2:51 AM77 °FPassing clouds.6 mph85%29.96 "Hg10 mi
1:51 AM77 °FPassing clouds.3 mph85%29.97 "Hg10 mi
12:51 AM79 °FPartly cloudy.3 mph77%29.98 "Hg10 mi
11:51 PM
Jul 24
79 °FPassing clouds.No wind79%29.96 "Hg9 mi
10:51 PM81 °FClear.6 mph74%29.96 "Hg10 mi
9:51 PM83 °FPassing clouds.5 mph65%29.94 "Hg10 mi
8:51 PM84 °FSunny.5 mph61%29.93 "Hg10 mi
7:51 PM86 °FSunny.7 mph53%29.91 "Hg10 mi
6:51 PM88 °FPassing clouds.8 mph50%29.90 "Hg10 mi
5:51 PM89 °FSunny.15 mph50%29.90 "Hg10 mi
4:51 PM88 °FPassing clouds.12 mph52%29.92 "Hg10 mi
Weather by CustomWeather, © 2014

See weather overviewHow to use our weather pages